Location: *
(43.4667°N, 11.6833°E)
Time: 20:28:03
(UTC+00:00)

MOS 1 Rocket - Pass Details

Date: 19 July 2019
Orbit: 615 x 829 km, 97.5° (Epoch: 25 August)

Event Time Altitude Azimuth Distance (km) Brightness Sun altitude
Rises 20:27:50 0° 24° (NNE) 2,969 6.9 -14.6°
Reaches altitude 10° 20:30:18 10° 37° (NE) 2,081 5.9 -14.9°
Maximum altitude 20:34:10 27° 95° (E) 1,300 4.3 -15.4°
Enters shadow 20:35:22 24° 120° (ESE) 1,408 4.3 -15.5°
